[[{"header":{"parameterUnit":"m.s-1","parameterCategory":1,"la1":30.2991,"la2":30.254,"lo1":-89.0895,"lo2":-89.0444,"dy":0.0017,"dx":0.0017,"nx":28,"ny":28,"refTime":"2024-10-22T03:00:00:Z","depth":0,"parameterNumber":2,"parameterNumberName":"U-component_of_WINDS"},"data":[0,0,0,0,0,0,0,0,0,0,0,0,0,0,0,0,0,0,0,0,0,0,0,0,0,0,0,0,0,0,0,0,0,0,0,0,0,0,0,0,0,0,0,0,0,0,0,0,0,0,0,0,0,0,0,0,0,0,-0.266,-0.266,0,-0.2687,-0.2688,-0.2688,-0.2697,-0.2697,-0.2697,-0.2697,-0.2726,-0.2726,-0.2727,0,0,0,0,0,0,0,0,0,0,0,0,0,-0.2616,-0.2617,-0.266,-0.266,-0.2661,-0.2687,-0.2688,-0.2688,-0.2697,-0.2697,-0.2697,-0.2696,-0.2725,-0.2726,-0.2727,0,0,0,0,0,0,0,0,0,0,0,0,0,-0.2638,-0.2617,-0.266,-0.2668,-0.2669,-0.2687,-0.2688,-0.2688,-0.2697,-0.2697,-0.2697,-0.2696,-0.2725,-0.2726,-0.2728,-0.2739,0,0,-0.2732,-0.2732,0,0,0,0,0,0,0,0,-0.2637,-0.264,-0.2667,-0.2668,-0.2669,-0.2688,-0.2683,-0.2705,-0.2697,-0.2686,-0.2697,-0.2696,-0.2713,-0.2716,-0.2721,-0.2741,-0.2742,-0.2732,-0.2733,-0.2733,-0.2733,0,0,0,0,0,0,0,-0.2635,-0.2639,-0.2671,-0.2667,-0.2668,-0.2671,-0.2674,-0.2687,-0.2701,-0.2687,-0.2688,-0.2691,-0.2714,-0.272,-0.2722,-0.2742,-0.2732,-0.2733,-0.2734,-0.2734,-0.2773,-0.2773,0,0,0,0,0,0,-0.2632,-0.2637,-0.267,-0.2672,-0.2652,-0.2672,-0.2675,-0.2682,-0.2701,-0.2703,-0.2691,-0.2691,-0.2718,-0.272,-0.2723,-0.2738,-0.2733,-0.2734,-0.2735,-0.2773,-0.2773,-0.2773,0,0,0,0,0,0,-0.2631,-0.2635,-0.2669,-0.2655,-0.2659,-0.2673,-0.2681,-0.2683,-0.2689,-0.2703,-0.2706,-0.2695,-0.2718,-0.2721,-0.2735,-0.2739,-0.2735,-0.2736,-0.2772,-0.2773,-0.2773,-0.2769,0,0,0,0,0,0,-0.263,-0.2635,-0.2639,-0.2655,-0.266,-0.268,-0.2681,-0.2684,-0.2691,-0.2692,-0.2708,-0.271,-0.2718,-0.2733,-0.2736,-0.2741,-0.2737,-0.2772,-0.2772,-0.2773,-0.2768,-0.2769,-0.2769,0,0,0,0,0,-0.2628,-0.2637,-0.264,-0.2643,-0.2666,-0.268,-0.2683,-0.2692,-0.2691,-0.2696,-0.2705,-0.2709,-0.2738,-0.2734,-0.2738,-0.2743,-0.2772,-0.2772,-0.2773,-0.2768,-0.2769,-0.2769,0,0,0,0,0,0,-0.2623,-0.2639,-0.2642,-0.2656,-0.2667,-0.2682,-0.2688,-0.2692,-0.2704,-0.2704,-0.2714,-0.2718,-0.2731,-0.2738,-0.2734,-0.2756,-0.2755,-0.2756,-0.275,-0.2751,-0.2751,-0.2749,-0.2738,0,0,0,0,0,-0.2623,-0.2633,-0.2647,-0.2658,-0.2663,-0.2675,-0.2682,-0.2687,-0.2699,-0.2703,-0.2714,-0.2725,-0.2737,-0.2744,-0.2755,-0.2769,-0.2773,-0.2775,-0.2775,-0.2775,-0.2776,-0.2784,-0.2785,-0.2775,-0.2775,-0.2775,0,0,-0.2624,-0.2634,-0.264,-0.2657,-0.2666,-0.2677,-0.2679,-0.269,-0.2698,-0.2705,-0.2719,-0.2727,-0.274,-0.2754,-0.2761,-0.2761,-0.278,-0.2776,-0.2776,-0.2777,-0.2785,-0.2786,-0.2786,-0.2775,-0.2775,-0.2775,0,0,-0.2631,-0.2639,-0.2649,-0.2658,-0.2671,-0.2679,-0.2681,-0.2696,-0.2701,-0.2715,-0.2721,-0.273,-0.275,-0.2759,-0.2766,-0.2776,-0.278,-0.2779,-0.2781,-0.2788,-0.2789,-0.279,-0.2794,-0.2795,-0.278,-0.278,-0.278,0,-0.263,-0.2646,-0.2654,-0.2665,-0.2672,-0.2679,-0.2689,-0.2697,-0.2714,-0.2719,-0.2719,-0.2743,-0.2753,-0.2769,-0.2771,-0.2776,-0.278,-0.2778,-0.2788,-0.2789,-0.279,-0.2794,-0.2795,-0.278,-0.278,-0.278,-0.278,0,-0.2645,-0.2656,-0.2662,-0.2677,-0.2686,-0.2696,-0.2706,-0.2713,-0.2718,-0.2725,-0.2739,-0.2751,-0.2764,-0.2768,-0.2773,-0.2785,-0.2785,-0.2786,-0.2786,-0.2791,-0.2794,-0.2796,-0.278,-0.278,-0.278,-0.278,0,0,-0.265,-0.2669,-0.2671,-0.2678,-0.2693,-0.2701,-0.2712,-0.2725,-0.2731,-0.2742,-0.2751,-0.2767,-0.2769,-0.2777,-0.2783,-0.2789,-0.2796,-0.279,-0.279,-0.2791,-0.281,-0.2809,-0.2811,-0.2799,-0.2799,-0.2799,-0.2809,0,-0.2659,-0.2678,-0.2686,-0.2701,-0.2712,-0.2717,-0.2727,-0.2737,-0.2744,-0.2754,-0.2761,-0.2773,-0.2773,-0.2778,-0.2785,-0.2794,-0.28,-0.2793,-0.2808,-0.2808,-0.2805,-0.2813,-0.2812,-0.2821,-0.281,-0.2811,-0.2811,0,-0.2673,-0.2683,-0.27,-0.2713,-0.2717,-0.2726,-0.2738,-0.2747,-0.2759,-0.2763,-0.2772,-0.2777,-0.2789,-0.2787,-0.2803,-0.2798,-0.2804,-0.2809,-0.281,-0.2812,-0.281,-0.2816,-0.2824,-0.2825,-0.2813,-0.2813,-0.2813,0,-0.2675,-0.2693,-0.2706,-0.2711,-0.2727,-0.2732,-0.2739,-0.275,-0.2757,-0.2768,-0.2773,-0.2785,-0.2792,-0.2801,-0.2809,-0.2807,-0.2824,-0.2824,-0.2829,-0.2829,-0.2833,-0.2833,-0.2843,-0.2836,-0.2836,-0.2836,-0.2836,0,-0.2685,-0.2695,-0.2707,-0.2714,-0.2726,-0.2734,-0.2745,-0.2752,-0.2762,-0.2771,-0.2777,-0.2785,-0.2796,-0.2805,-0.2812,-0.2824,-0.2827,-0.2831,-0.2833,-0.2831,-0.2831,-0.2836,-0.2836,-0.2836,-0.2836,-0.2836,-0.2836,0,-0.269,-0.2698,-0.2712,-0.2725,-0.2729,-0.2737,-0.2748,-0.2756,-0.2763,-0.2774,-0.2777,-0.2788,-0.28,-0.2809,-0.2824,-0.2829,-0.2842,-0.2844,-0.2838,-0.2839,-0.2844,-0.2844,-0.2859,-0.2861,-0.2852,-0.2852,-0.2852,0,-0.2696,-0.2704,-0.2718,-0.2724,-0.2731,-0.2741,-0.2748,-0.2756,-0.2764,-0.2777,-0.2783,-0.2795,-0.2805,-0.2824,-0.2833,-0.2845,-0.2847,-0.2852,-0.2849,-0.2847,-0.2848,-0.2848,-0.2848,-0.2852,-0.2852,-0.2852,-0.2852,0,-0.2706,-0.271,-0.272,-0.2731,-0.274,-0.2749,-0.2759,-0.2764,-0.2773,-0.2781,-0.2793,-0.2801,-0.2816,-0.2828,-0.2841,-0.2848,-0.2852,-0.2853,-0.2855,-0.2853,-0.285,-0.2852,-0.284,-0.2853,-0.2853,-0.2853,-0.2853,-0.2853,-0.2713,-0.272,-0.273,-0.2741,-0.2749,-0.2758,-0.2766,-0.2773,-0.2783,-0.2796,-0.28,-0.2813,-0.2823,-0.2841,-0.2848,-0.2857,-0.2858,-0.286,-0.2861,-0.2862,-0.2862,-0.2848,-0.286,-0.286,-0.286,-0.286,-0.286,0,-0.2723,-0.273,-0.274,-0.2753,-0.2762,-0.2764,-0.2774,-0.2782,-0.2792,-0.2802,-0.2811,-0.2825,-0.2837,-0.2846,-0.2858,-0.2864,-0.2866,-0.2867,-0.2867,-0.2869,-0.2861,-0.2858,-0.2865,-0.2865,-0.2865,-0.2865,-0.2865,-0.2865,-0.273,-0.2743,-0.2747,-0.2763,-0.277,-0.2782,-0.2788,-0.2796,-0.2804,-0.2818,-0.2828,-0.2834,-0.2844,-0.2856,-0.2867,-0.2869,-0.2874,-0.2874,-0.2877,-0.287,-0.2869,-0.2869,-0.2866,-0.2875,-0.2875,-0.2885,-0.2885,-0.2885]},{"header":{"parameterUnit":"m.s-1","parameterCategory":1,"la1":30.2991,"la2":30.254,"lo1":-89.0895,"lo2":-89.0444,"dy":0.0017,"dx":0.0017,"nx":28,"ny":28,"refTime":"2024-10-22T03:00:00:Z","depth":0,"parameterNumber":3,"parameterNumberName":"V-component_of_WINDS"},"data":[0,0,0,0,0,0,0,0,0,0,0,0,0,0,0,0,0,0,0,0,0,0,0,0,0,0,0,0,0,0,0,0,0,0,0,0,0,0,0,0,0,0,0,0,0,0,0,0,0,0,0,0,0,0,0,0,0,0,-2.2888,-2.2889,0,-2.2988,-2.2989,-2.299,-2.2999,-2.2998,-2.2997,-2.2996,-2.3096,-2.3099,-2.3103,0,0,0,0,0,0,0,0,0,0,0,0,0,-2.2703,-2.2706,-2.2888,-2.2889,-2.289,-2.2988,-2.2989,-2.2991,-2.2999,-2.2998,-2.2996,-2.2995,-2.3094,-2.3099,-2.3103,0,0,0,0,0,0,0,0,0,0,0,0,0,-2.2791,-2.2707,-2.2888,-2.2906,-2.2909,-2.2988,-2.2989,-2.2991,-2.2999,-2.2998,-2.2996,-2.2994,-2.3093,-2.3098,-2.3104,-2.317,0,0,-2.312,-2.3123,0,0,0,0,0,0,0,0,-2.2786,-2.2798,-2.2902,-2.2905,-2.2908,-2.2979,-2.2961,-2.3051,-2.3,-2.2965,-2.2996,-2.2994,-2.3058,-2.3066,-2.3088,-2.3174,-2.3179,-2.3121,-2.3124,-2.3127,-2.3128,0,0,0,0,0,0,0,-2.278,-2.2793,-2.2927,-2.2904,-2.2908,-2.2909,-2.292,-2.2978,-2.3019,-2.2968,-2.2969,-2.2981,-2.3059,-2.3083,-2.3091,-2.318,-2.3121,-2.3126,-2.3129,-2.3131,-2.3326,-2.3328,0,0,0,0,0,0,-2.277,-2.2788,-2.2924,-2.293,-2.2842,-2.2914,-2.2926,-2.2958,-2.3019,-2.3026,-2.2982,-2.2981,-2.3075,-2.3084,-2.3094,-2.3176,-2.3127,-2.3132,-2.3135,-2.3324,-2.3327,-2.3329,0,0,0,0,0,0,-2.2766,-2.2783,-2.292,-2.286,-2.2877,-2.2919,-2.2955,-2.2961,-2.2985,-2.3029,-2.3036,-2.2999,-2.3074,-2.3087,-2.3151,-2.318,-2.3134,-2.3139,-2.3322,-2.3325,-2.3328,-2.334,0,0,0,0,0,0,-2.2761,-2.2781,-2.2807,-2.286,-2.2881,-2.2976,-2.2957,-2.2964,-2.2995,-2.2994,-2.3047,-2.3054,-2.3073,-2.3143,-2.3157,-2.3186,-2.3143,-2.332,-2.3323,-2.3327,-2.3337,-2.3343,-2.3347,0,0,0,0,0,-2.2754,-2.2805,-2.2808,-2.2824,-2.2914,-2.2977,-2.2989,-2.3011,-2.2997,-2.3023,-2.3052,-2.3052,-2.3175,-2.315,-2.3165,-2.3197,-2.3318,-2.3322,-2.3326,-2.3335,-2.3341,-2.3347,0,0,0,0,0,0,-2.2753,-2.2813,-2.2816,-2.2886,-2.2927,-2.2979,-2.3012,-2.3017,-2.3062,-2.306,-2.3084,-2.3096,-2.316,-2.3185,-2.3156,-2.3264,-2.3245,-2.3252,-2.3246,-2.3253,-2.3258,-2.325,-2.3148,0,0,0,0,0,-2.2761,-2.2808,-2.2858,-2.2915,-2.2935,-2.297,-2.2999,-2.3012,-2.3055,-2.3072,-2.3105,-2.3146,-2.3194,-2.3225,-2.3271,-2.3341,-2.3353,-2.3371,-2.3376,-2.338,-2.3386,-2.3425,-2.3434,-2.3343,-2.3343,-2.3342,0,0,-2.2777,-2.2816,-2.2844,-2.2915,-2.2948,-2.2996,-2.2984,-2.3036,-2.3071,-2.3079,-2.3143,-2.3169,-2.3216,-2.3284,-2.3315,-2.3307,-2.3414,-2.3385,-2.3388,-2.3392,-2.343,-2.3439,-2.3447,-2.3345,-2.3345,-2.3344,0,0,-2.2832,-2.2866,-2.2917,-2.2951,-2.3002,-2.3026,-2.3038,-2.309,-2.3108,-2.3172,-2.3179,-2.3222,-2.3304,-2.3337,-2.3365,-2.3435,-2.3437,-2.3449,-2.3476,-2.3514,-2.3521,-2.3528,-2.3552,-2.3561,-2.3455,-2.3455,-2.3455,0,-2.2845,-2.2919,-2.2943,-2.2995,-2.3026,-2.3037,-2.3089,-2.312,-2.3183,-2.3205,-2.3194,-2.3298,-2.333,-2.3406,-2.3424,-2.3446,-2.346,-2.3442,-2.3518,-2.3525,-2.3532,-2.3555,-2.3565,-2.3456,-2.3456,-2.3456,-2.3456,0,-2.2933,-2.2984,-2.302,-2.3082,-2.3117,-2.3168,-2.32,-2.3233,-2.3244,-2.3268,-2.3334,-2.3374,-2.3429,-2.3448,-2.3459,-2.3526,-2.3519,-2.3513,-2.3494,-2.3541,-2.3564,-2.3573,-2.3458,-2.3457,-2.3457,-2.3457,0,0,-2.2988,-2.3064,-2.3076,-2.3105,-2.3163,-2.3202,-2.3255,-2.331,-2.3337,-2.3381,-2.3425,-2.3495,-2.3491,-2.3522,-2.3537,-2.357,-2.3623,-2.3561,-2.3562,-2.3571,-2.37,-2.3704,-2.3714,-2.3626,-2.3628,-2.3629,-2.3696,0,-2.3049,-2.3143,-2.3167,-2.3247,-2.3294,-2.3306,-2.3352,-2.3392,-2.3417,-2.3461,-2.3487,-2.3537,-2.3527,-2.3546,-2.358,-2.361,-2.3649,-2.3605,-2.3667,-2.3669,-2.3654,-2.3726,-2.3729,-2.379,-2.3705,-2.3707,-2.3708,0,-2.3132,-2.3179,-2.3264,-2.3316,-2.3337,-2.3378,-2.3431,-2.3472,-2.3518,-2.3534,-2.357,-2.3582,-2.3637,-2.3616,-2.3692,-2.3661,-2.3688,-2.3706,-2.3709,-2.3715,-2.369,-2.3733,-2.381,-2.3819,-2.3722,-2.3721,-2.372,0,-2.3163,-2.3247,-2.3309,-2.3333,-2.3396,-2.3425,-2.3452,-2.3497,-2.3529,-2.3575,-2.3596,-2.3647,-2.3675,-2.3715,-2.374,-2.3723,-2.3814,-2.3795,-2.3829,-2.3828,-2.3846,-2.3845,-2.3929,-2.3865,-2.3865,-2.3864,-2.3864,0,-2.3228,-2.3279,-2.3324,-2.3362,-2.342,-2.3448,-2.3504,-2.3532,-2.3572,-2.3616,-2.3629,-2.367,-2.3701,-2.3746,-2.3767,-2.3826,-2.3839,-2.3853,-2.3858,-2.3851,-2.385,-2.3869,-2.3865,-2.3867,-2.3866,-2.3866,-2.3865,0,-2.3272,-2.3304,-2.3372,-2.3427,-2.3442,-2.3483,-2.353,-2.3567,-2.3593,-2.3648,-2.3662,-2.3702,-2.3756,-2.3786,-2.3853,-2.3866,-2.3933,-2.3936,-2.3918,-2.392,-2.3951,-2.3948,-2.405,-2.4065,-2.3991,-2.3992,-2.3993,0,-2.3311,-2.3351,-2.3411,-2.3441,-2.347,-2.3519,-2.3552,-2.3581,-2.3614,-2.3671,-2.3701,-2.3756,-2.3801,-2.3886,-2.3921,-2.3973,-2.3976,-2.4009,-2.3984,-2.3977,-2.3977,-2.3974,-2.3978,-2.4012,-2.4013,-2.4014,-2.4014,0,-2.3377,-2.3391,-2.3438,-2.3492,-2.3531,-2.3575,-2.3618,-2.3642,-2.3678,-2.3715,-2.3771,-2.3806,-2.3875,-2.3929,-2.3984,-2.4012,-2.4019,-2.4022,-2.4032,-2.4026,-2.4014,-2.4021,-2.3929,-2.4019,-2.4019,-2.4018,-2.4018,-2.4018,-2.3419,-2.3456,-2.3504,-2.3557,-2.3592,-2.3632,-2.3671,-2.3702,-2.3749,-2.3808,-2.3823,-2.3881,-2.3927,-2.4002,-2.4031,-2.4077,-2.4071,-2.4086,-2.409,-2.4093,-2.4094,-2.4007,-2.4087,-2.4087,-2.4087,-2.4087,-2.4087,0,-2.3485,-2.3517,-2.3566,-2.3626,-2.3668,-2.3673,-2.3721,-2.3755,-2.3807,-2.385,-2.3894,-2.3959,-2.4012,-2.4051,-2.4106,-2.4135,-2.414,-2.4148,-2.4146,-2.4152,-2.4097,-2.4082,-2.4143,-2.4143,-2.4143,-2.4143,-2.4143,-2.4143,-2.3524,-2.3587,-2.3607,-2.3688,-2.3719,-2.3777,-2.3805,-2.3842,-2.3876,-2.3948,-2.3992,-2.4018,-2.406,-2.4118,-2.4167,-2.4177,-2.4196,-2.4204,-2.4215,-2.4162,-2.4156,-2.415,-2.4137,-2.4208,-2.4208,-2.4267,-2.4267,-2.4268]}]]